Location: La Oliva
(42.2466°N, 2.9955°E)
Time: 07:28:48
(UTC+00:00)

Cosmos 2297 Rocket - Pass Details

Date: 22 April 2021
Orbit: 838 x 844 km, 71.0° (Epoch: 07 May)

Event Time Altitude Azimuth Distance (km) Brightness Sun altitude
Rises 18:56:11 0° 165° (SSE) 3,377 5.0 -4.1°
Reaches altitude 10° 18:59:05 10° 151° (SSE) 2,448 4.2 -4.6°
Maximum altitude 19:03:21 23° 101° (E) 1,725 3.3 -5.3°
Drops below altitude 10° 19:07:39 10° 51° (NE) 2,465 4.4 -6.1°
Sets 19:10:34 0° 38° (NE) 3,406 5.2 -6.6°
